Regional Weather Roundup
Issued by NWS

Home | Current Version | Previous Version | Text Only | Print | Product List | Glossary Off
Versions: 1 2 3 4 5 6 7 8 9 10 11 12 13 14 15 16 17 18 19 20 21 22 23 24 25 26 27 28

000
ASUS45 KTFX 262310
RWRMT
MONTANA REGIONAL WEATHER ROUNDUP
NATIONAL WEATHER SERVICE GREAT FALLS MT
500 PM MDT FRI AUG 26 2016

NOTE: "FAIR" INDICATES FEW OR NO CLOUDS BELOW 12000 FEET WITH NO
SIGNIFICANT WEATHER AND/OR OBSTRUCTIONS TO VISIBILITY.

MTZ001>007-043-270000-
WEST OF THE DIVIDE

CITY           SKY/WX    TMP DP  RH WIND       PRES   REMARKS
KALISPELL      SUNNY     76  41  28 SE8G17    29.94F
MISSOULA       SUNNY     80  36  20 N7        29.95F
BUTTE          CLOUDY    71  30  21 N7        30.04F
MULLAN PASS    SUNNY     66  32  28 VRB6      30.10F
DEER LODGE       N/A     72  32  23 N7        30.03F
EUREKA           N/A     81  39  22 SE8       29.91F
HAMILTON         N/A     75  36  23 CALM      29.97F
LIBBY            N/A     81  37  21 SE5       29.91F
$$

MTZ008-052>055-270000-
SOUTHWEST MONTANA

CITY           SKY/WX    TMP DP  RH WIND       PRES   REMARKS
BOZEMAN        SUNNY     73  33  23 CALM      30.00F
DILLON         CLOUDY    73  33  23 N6        30.00F
W YELLOWSTONE  CLOUDY    66  27  22 SW9G21    30.09R
ENNIS          SUNNY     73  28  19 SW10      30.06F
$$

MTZ009-010-012-014-046-048-049-054-270000-
EAST SLOPES AND CENTRAL MONTANA

CITY           SKY/WX    TMP DP  RH WIND       PRES   REMARKS
CUT BANK       MOSUNNY   71  36  27 MISG      29.96F
GREAT FALLS    SUNNY     71  40  32 E9        29.98F
HELENA         CLOUDY    76  35  22 NE7       29.98S
CHOTEAU          N/A     72  39  30 VRB5      30.00F
CONRAD           N/A     73  44  35 W2        30.01F
$$

MTZ011-013-016-021-045-047-050-051-270000-
NORTH CENTRAL MONTANA

CITY           SKY/WX    TMP DP  RH WIND       PRES   REMARKS
HAVRE          MOSUNNY   71  42  35 S6        29.96F
LEWISTOWN      MOSUNNY   67  43  41 VRB5      30.03F
N BAR RANCH      N/A     64  39  39 CALM      30.06F
CHINOOK          N/A     70  45  40 SW6       29.96F
$$

MTZ017>020-022>027-061-062-270000-
NORTHEAST MONTANA

CITY           SKY/WX    TMP DP  RH WIND       PRES   REMARKS
GLASGOW        CLOUDY    67  46  47 W12       29.96F
JORDAN           N/A     66  45  46 N8        29.99F
SIDNEY         MOSUNNY   77  42  28 NW10G17   29.92F
WOLF POINT     CLOUDY    71  48  43 W12       29.95F
POPLAR           N/A     68  48  49 NW12      29.94F
$$

MTZ028>42-056>058-270000-
SOUTHCENTRAL AND SOUTHEAST MONTANA

CITY           SKY/WX    TMP DP  RH WIND       PRES   REMARKS
BAKER          CLOUDY    65  51  60 SE14      29.99F
BILLINGS       PTSUNNY   73  35  25 SE7       29.99F
LIVINGSTON     MOSUNNY   73  33  23 N5        29.99F
MILES CITY     MOSUNNY   76  33  21 W10       29.95F
FORSYTH          N/A     73  37  27 W3        29.96F
LAUREL           N/A     73  37  26 NE1       29.98F
ROUNDUP          N/A     66  41  40 N9        29.93F
$$

REGIONAL REPORTS...DAKOTAS

CITY           SKY/WX    TMP DP  RH WIND       PRES   REMARKS
WILLISTON      PTSUNNY   76  42  29 SW8       29.92F
MINOT          CLOUDY    71  50  47 S25G35    29.94S
DICKINSON      CLOUDY    69  39  33 S14       29.97F
CROSBY           N/A     72  45  37 W10       29.93S
WATFORD CITY     N/A     73  41  31 S13       29.94S
BISMARCK       SUNNY     69  51  52 S13       30.02F
GRAND FORKS    CLOUDY    71  54  54 SW13      30.01F
FARGO          CLOUDY    70  53  54 W10       30.06F
BUFFALO SD       N/A     67  53  61 E10       29.94F
RAPID CITY     SUNNY     68  54  60 SE15      29.98F
$$

REGIONAL REPORTS...WYOMING/IDAHO/WASHINGTON

CITY           SKY/WX    TMP DP  RH WIND       PRES   REMARKS
GILLETTE       CLOUDY    71  41  33 N12       30.02R
SHERIDAN       CLOUDY    71  40  32 CALM      30.01S
BUFFALO WY     CLOUDY    72  38  29 E8        30.06F
CODY           CLOUDY    57  46  67 N9        30.06R
YELLOWSTONE LA   N/A     63  26  24 VRB7G17   30.16S
IDAHO FALLS    CLOUDY    77  29  17 SW12G18   30.00F
SALMON         CLOUDY    77  34  20 NW5       29.92F
BOISE          SUNNY     85  33  15 N8G16     29.93F
SPOKANE        PTSUNNY   84  33  16 NW10      29.91F
$$

REGIONAL REPORTS...ALBERTA

CITY           SKY/WX    TMP DP  RH WIND       PRES   REMARKS
EDMONTON       MOSUNNY   70  48  46 SW7       29.82F
CALGARY        PTSUNNY   68  45  42 S9        29.90F
LETHBRIDGE     MOSUNNY   73  39  29 VRB8      29.92F
MEDICINE HAT   MOSUNNY   72  46  40 S7        29.92F
WATERTON GATE    N/A     70  41  35 SW14G21     N/A
MILK RIVER       N/A     72  36  26 NW2         N/A
ONEFOUR          N/A     68  39  34 NW8         N/A
$$

REGIONAL REPORTS...SASKATCHEWAN

CITY           SKY/WX    TMP DP  RH WIND       PRES   REMARKS
SWIFT CURRENT  MOSUNNY   66  43  42 W15G21    29.93F
REGINA         PTSUNNY   64  54  68 NW12      29.90S
SASKATOON      PTSUNNY   66  48  52 N10       29.89F
CYPRESS HILLS    N/A     61  45  55 NW5         N/A
VAL MARIE        N/A     59  45  58 W18G26      N/A
ROCKGLEN         N/A     61  48  63 NW9         N/A
ASSINIBOIA       N/A     72  46  40 S7          N/A
$$




USA.gov is the U.S. government's official web portal to all federal, state and local government web resources and services.